This is the latest recevied weather packets stored in our database for station/object WB5HZM-3. If no packets are shown the sender has not sent any weather packets the latest 10 day(s).
| Time | Temp. | Humidity | Pressure | Rain* | Wind** | Luminosity | Snow |
|---|---|---|---|---|---|---|---|
| 1778209984 | 20° C | 78% | 1015.9 hPa | 0 mm | - | - | - |
| 1778209380 | 20.56° C | 76% | 1015.8 hPa | 0 mm | - | - | - |
| 1778208775 | 20.56° C | 76% | 1015.7 hPa | 0 mm | - | - | - |
| 1778208173 | 21.11° C | 76% | 1015.6 hPa | 0 mm | - | - | - |
| 1778207589 | 21.11° C | 74% | 1015.9 hPa | 0 mm | - | - | - |
| 1778206984 | 21.11° C | 73% | 1016 hPa | 0 mm | - | - | - |
| 1778206383 | 21.11° C | 73% | 1016.1 hPa | 0 mm | - | - | - |
| 1778205779 | 21.11° C | 73% | 1015.9 hPa | 0 mm | - | - | - |
| 1778205173 | 21.11° C | 72% | 1016 hPa | 0 mm | - | - | - |
| 1778204589 | 21.11° C | 73% | 1015.8 hPa | 0 mm | - | - | - |
| 1778203988 | 21.11° C | 72% | 1015.5 hPa | 0 mm | - | - | - |
| 1778203383 | 21.11° C | 71% | 1015.4 hPa | 0 mm | - | - | - |
| 1778202779 | 21.11° C | 70% | 1015.4 hPa | 0 mm | - | - | - |
| 1778202179 | 21.67° C | 71% | 1015.1 hPa | 0 mm | - | - | - |
| 1778201575 | 21.67° C | 70% | 1015.2 hPa | 0 mm | - | - | - |
| 1778200991 | 21.67° C | 70% | 1015.1 hPa | 0 mm | - | - | - |
| 1778200386 | 21.67° C | 70% | 1015.4 hPa | 0 mm | - | - | - |
| 1778199786 | 21.67° C | 70% | 1015.4 hPa | 0 mm | - | - | - |
| 1778199182 | 21.67° C | 70% | 1015.2 hPa | 0 mm | - | - | - |
| 1778198577 | 21.67° C | 68% | 1015.3 hPa | 0 mm | - | - | - |
| 1778197977 | 22.22° C | 69% | 1015.4 hPa | 0 mm | - | - | - |
| 1778197393 | 22.22° C | 71% | 1015.5 hPa | 0 mm | - | - | - |
| 1778196789 | 22.22° C | 68% | 1015.3 hPa | 0 mm | - | - | - |
| 1778196188 | 22.78° C | 68% | 1015.1 hPa | 0 mm | - | - | - |
| 1778195584 | 22.78° C | 68% | 1015.1 hPa | 0 mm | - | - | - |
* Rain latest hour (hover to see other rain measurements)
** Current wind speed in m/s (hover to see current wind gust speed)